1288483228858,3.00061
1288483288858,2.99979
1288483348858,3.00528
1288483408858,3.01765
1288483468858,2.99927
1288483528858,2.99134
1288483588858,2.98011
1288483648858,3.03327
1288483708858,2.99414
1288483768858,2.99474
1288483828858,2.99348
1288483888858,3.00360
1288483948858,3.02256
1288484008858,3.04175
1288484068858,2.99732
1288484128858,2.99056
1288484188858,3.01006
1288484248858,3.01939
1288484308858,2.97990
1288484368858,2.95817
1288484428858,3.00934
1288484488858,2.99394
1288484548858,3.00117
1288484608858,3.02701
1288484668858,3.00383
1288484728858,3.01565
1288484788858,2.98010
1288484848858,3.01605
1288484908858,3.00596
1288484968858,2.97742
1288485028858,3.02157
1288485088858,3.00386
1288485148858,3.01322
1288485208858,3.01699
1288485268858,3.01599
1288485328858,3.01018
1288485388858,2.98456
1288485448858,2.98887
1288485508858,3.00966
1288485568858,3.01698
1288485628858,2.99240
1288485688858,3.00461
1288485748858,3.00435
1288485808858,3.01292
1288485868858,3.01194
1288485928858,3.01244
1288485988858,2.99779
1288486048858,3.01305
1288486108858,3.01577
1288486168858,3.00563
1288486228858,3.01843
1288486288858,3.02208
1288486348858,2.99710
1288486408858,3.00436
1288486468858,3.01584
1288486528858,3.01939
1288486588858,2.99451
1288486648858,3.02617
1288486708858,2.99015
1288486768858,3.01264
1288486828869,2.98286
1288486888869,3.00709
1288486948869,3.01838
1288487008869,3.01598
1288487068869,3.00501
1288487128869,3.00278
1288487188869,3.02185
1288487248869,2.99953
1288487308869,3.08375
1288487368869,2.98831
1288487428869,3.03926
1288487488869,2.99382
1288487548869,3.03231
1288487608869,2.98424
1288487668869,3.03455
1288487728869,3.06250
1288487788869,3.07899
1288487848869,3.04855
1288487908869,3.04281
1288487968869,3.04753
1288488028869,3.00302
1288488088869,3.01771
1288488148869,3.02349
1288488208869,3.03427
1288488268869,2.97898
1288488328869,2.99308
1288488388869,3.03481
1288488448869,3.01812
1288488508869,3.02593
1288488568869,3.03497
1288488628869,3.00991
1288488688869,3.00764
1288488748869,3.01465
1288488808869,3.00008
1288488868869,3.02917
1288488928869,3.00162
1288488988869,3.00461
1288489048869,2.99796
1288489108869,3.03493
1288489168869,3.01968
1288489228869,3.07368
1288489288869,3.00885
1288489348869,3.02464
1288489408869,3.02213
1288489468869,3.01924
1288489528869,3.02731
1288489588869,3.02108
1288489648869,3.02271
1288489708869,3.02276
1288489768869,3.02070
1288489828869,3.02975
1288489888869,3.01635
1288489948869,3.00900
1288490008869,3.01573
1288490068869,3.02063
1288490128869,3.01618
1288490188869,3.00908
1288490248869,3.00176
1288490308869,2.99854
1288490368869,3.01961
1288490428879,3.01447
1288490488879,3.00039
1288490548879,3.00319
1288490608879,3.03230
1288490668879,3.02051
1288490728879,3.02012
1288490788879,3.01917
1288490848879,2.97575
1288490908879,3.02006
1288490968879,3.02687
1288491028879,2.98049
1288491088879,3.02710
1288491148879,2.99977
1288491208879,3.03872
1288491268879,2.99083
1288491328879,3.01618
1288491388879,3.02343
1288491448879,2.99982
1288491508879,3.01527
1288491568879,3.04700
1288491628879,3.00636
1288491688879,3.03931
1288491748879,3.02404
1288491808879,3.03432
1288491868879,3.02901
1288491928879,3.00672
1288491988879,2.99777
1288492048879,3.01907
1288492108879,3.00531
1288492168879,3.03540
1288492228879,2.98621
1288492288879,3.00048
1288492348879,3.02850
1288492408879,2.98781
1288492468879,3.00375
1288492528879,3.03819
1288492588879,3.02942
1288492648879,2.99736
1288492708879,2.99415
1288492768879,2.97395
1288492828879,3.01336
1288492888879,3.05472
1288492948879,3.04710
1288493008879,3.01141
1288493068879,3.01085
1288493128879,3.03234
1288493188879,3.03613
1288493248879,3.01992
1288493308879,3.02218
1288493368879,3.02490
1288493428879,2.99424
1288493488879,3.02210
1288493548879,3.02325
1288493608879,3.01732
1288493668879,3.04610
1288493728879,3.03098
1288493788879,3.03490
1288493848879,3.01858
1288493908879,3.03237
1288493968879,3.01716
1288494028890,3.02254
1288494088890,3.02171
1288494148890,3.04753
1288494208890,3.00431
1288494268890,3.01163
1288494328890,3.00969
1288494388890,3.00603
1288494448890,3.01790
1288494508890,3.01557
1288494568890,3.02697
1288494628890,3.04856
1288494688890,3.05432
1288494748890,3.05442
1288494808890,3.03897
1288494868890,3.05327
1288494928890,3.00676
1288494988890,3.07220
1288495048890,3.14621
1288495108890,3.23760
1288495168890,3.22972
1288495228890,3.16097
1288495288890,3.11345
1288495348890,3.04075
1288495408890,3.03197
1288495468890,3.06844
1288495528890,3.04167
1288495588890,3.04752
1288495648890,3.01574
1288495708890,3.05666
1288495768890,3.05001
1288495828890,3.04454
1288495888890,3.04044
1288495948890,3.01077
1288496008890,3.02115
1288496068890,3.05223
1288496128890,2.99769
1288496188890,3.00847
1288496248890,3.02603
1288496308890,3.00149
1288496368890,3.04085
1288496428890,3.01373
1288496488890,3.02657
1288496548890,3.04362
1288496608890,3.04190
1288496668890,2.99857
1288496728890,2.99668
1288496788890,3.02606
1288496848890,3.03676
1288496908890,3.01958
1288496968890,3.04209
1288497028890,3.03322
1288497088890,3.02547
1288497148890,3.05131
1288497208890,3.01074
1288497268890,3.01517
1288497328890,3.04335
1288497388890,3.01122
1288497448890,2.99411
1288497508890,3.04655
1288497568890,3.03512
1288497628900,3.05264
1288497688900,3.04498
1288497748900,3.03168
1288497808900,2.99906
1288497868900,3.02532
1288497928900,3.01947
1288497988900,3.05581
1288498048900,3.07372
1288498108900,3.05169
1288498168900,3.06516
1288498228900,3.02194
1288498288900,3.04138
1288498348900,3.08327
1288498408900,3.04263
1288498468900,3.04109
1288498528900,3.01460
1288498588900,3.01104
1288498648900,3.04755
1288498708900,3.05097
1288498768900,3.04907
1288498828900,3.04512
1288498888900,3.02896
1288498948900,3.03131
1288499008900,3.06751
1288499068900,2.99828
1288499128900,3.03067
1288499188900,3.04006
1288499248900,3.03095
1288499308900,3.12716
1288499368900,3.38880
1288499428900,3.55320
1288499488900,3.67238
1288499548900,3.67863
1288499608900,3.70351
1288499668900,3.63216
1288499728900,3.46935
1288499788900,3.40147
1288499848900,3.40008
1288499908900,3.32290
1288499968900,3.28033
1288500028900,3.24098
1288500088900,3.21851
1288500148900,3.15874
1288500208900,3.14752
1288500268900,3.14162
1288500328900,3.11282
1288500388900,3.08414
1288500448900,3.11979
1288500508900,3.05489
1288500568900,3.09920
1288500628900,3.09139
1288500688900,3.07024
1288500748900,3.09674
1288500808900,3.06857
1288500868900,3.08547
1288500928900,3.07080
1288500988900,3.05130
1288501048900,3.04405
1288501108900,3.05366
1288501168900,3.03709
1288501228910,3.05011
1288501288910,3.07330
1288501348910,3.05005
1288501408910,3.05296
1288501468910,3.06519
1288501528910,3.06507
1288501588910,3.03826
1288501648910,3.05476
1288501708910,3.06821
1288501768910,3.06247
1288501828910,3.03451
1288501888910,3.03695
1288501948910,3.03299
1288502008910,3.06410
1288502068910,3.06120
1288502128910,3.06706
1288502188910,3.04999
1288502248910,3.06702
1288502308910,3.05063
1288502368910,3.05719
1288502428910,3.02337
1288502488910,3.06110
1288502548910,3.07485
1288502608910,3.02594
1288502668910,3.03013
1288502728910,3.05405
1288502788910,3.03868
1288502848910,3.05005
1288502908910,3.04026
1288502968910,3.04340
1288503028910,3.06243
1288503088910,3.05272
1288503148910,3.07021
1288503208910,3.03522
1288503268910,3.03586
1288503328910,3.05041
1288503388910,3.01451
1288503448910,3.03830
1288503508910,3.01094
1288503568910,3.02601
1288503628910,3.06401
1288503688910,3.03083
1288503748910,3.03804
1288503808910,3.02665
1288503868910,3.02564
1288503928910,3.06678
1288503988910,3.03138
1288504048910,3.04475
1288504108910,3.04634
1288504168910,3.01919
1288504228910,3.04197
1288504288910,3.05103
1288504348910,3.02935
1288504408910,3.03079
1288504468910,3.05635
1288504528910,3.03294
1288504588910,3.02596
1288504648910,3.03765
1288504708910,3.06529
1288504768910,3.02339
1288504828920,3.05416
1288504888920,3.04569
1288504948920,3.03760
1288505008920,3.02765
1288505068920,3.02537
1288505128920,2.99911
1288505188920,3.03959
1288505248920,3.04527
1288505308920,3.05498
1288505368920,3.05046
1288505428920,3.02131
1288505488920,3.06256
1288505548920,3.04290
1288505608920,3.03361
1288505668920,3.01430
1288505728920,3.02673
1288505788920,3.04988
1288505848920,3.03042
1288505908920,3.02691
1288505968920,3.02695
1288506028920,3.01484
1288506088920,3.01082
1288506148920,2.99771
1288506208920,3.02885
1288506268920,3.04618
1288506328920,2.99691
1288506388920,2.99689
1288506448920,3.04702
1288506508920,3.06322
1288506568920,3.03724
1288506628920,3.02660
1288506688920,3.00483
1288506748920,3.01969
1288506808920,3.05145
1288506868920,3.03300
1288506928920,3.04453
1288506988920,3.03342
1288507048920,3.02723
1288507108920,3.04056
1288507168920,3.03191
1288507228920,3.02431
1288507288920,3.01695
1288507348920,3.01712
1288507408920,3.05130
1288507468920,3.02459
1288507528920,3.03195
1288507588920,3.07383
1288507648920,3.04726
1288507708920,3.04296
1288507768920,3.03368
1288507828920,3.03699
1288507888920,3.03055
1288507948920,3.05598
1288508008920,3.03312
1288508068920,3.04165
1288508128920,3.03570
1288508188920,3.02072
1288508248920,3.04865
1288508308920,3.03348
1288508368920,3.00750
1288508428931,3.02497
1288508488931,3.03078
1288508548931,3.02586
1288508608931,3.05218
1288508668931,3.01523
1288508728931,3.04233
1288508788931,3.03786
1288508848931,3.01981
1288508908931,3.02911
1288508968931,3.04304
1288509028931,3.02478
1288509088931,3.06094
1288509148931,3.04028
1288509208931,3.03891
1288509268931,3.01420
1288509328931,3.01261
1288509388931,3.03370
1288509448931,3.03420
1288509508931,3.04371
1288509568931,3.04102
1288509628931,3.03102
1288509688931,3.03161
1288509748931,3.03614
1288509808931,3.02881
1288509868931,3.05970
1288509928931,3.05032
1288509988931,3.02901
1288510048931,3.01506
1288510108931,3.03057
1288510168931,3.03597
1288510228931,3.03734
1288510288931,3.03257
1288510348931,3.00355
1288510408931,3.03097
1288510468931,3.02811
1288510528931,3.02512
1288510588931,3.01609
1288510648931,3.04198
1288510708931,3.05215
1288510768931,3.03737
1288510828931,3.02915
1288510888931,3.02152
1288510948931,3.01026
1288511008931,3.02419
1288511068931,3.02295
1288511128931,3.01667
1288511188931,3.01197
1288511248931,3.03730
1288511308931,3.00151
1288511368931,3.02576
1288511428931,3.00240
1288511488931,3.02053
1288511548931,3.02097
1288511608931,3.04380
1288511668931,3.02841
1288511728931,3.05151
1288511788931,3.01085
1288511848931,3.00069
1288511908931,3.01477
1288511968931,3.00869
1288512028942,3.04374
1288512088942,2.98703
1288512148942,3.03643
1288512208942,3.05096
1288512268942,3.03444
1288512328942,3.02970
1288512388942,3.01705
1288512448942,3.04593
1288512508942,2.99560
1288512568942,3.00566
1288512628942,3.02962
1288512688942,3.02435
1288512748942,3.01965
1288512808942,3.01629
1288512868942,3.02139
1288512928942,3.01732
1288512988942,3.01176
1288513048942,3.00543
1288513108942,3.03563
1288513168942,3.02773
1288513228942,3.00864
1288513288942,3.02904
1288513348942,3.03616
1288513408942,2.99370
1288513468942,3.00868
1288513528942,3.04139
1288513588942,3.01968
1288513648942,3.01726
1288513708942,3.02307
1288513768942,3.02587
1288513828942,3.09992
1288513888942,3.01484
1288513948942,3.01473
1288514008942,3.03246
1288514068942,3.02855
1288514128942,3.05334
1288514188942,3.03385
1288514248942,3.00084
1288514308942,3.01856
1288514368942,3.04036
1288514428942,3.02072
1288514488942,3.03648
1288514548942,3.02981
1288514608942,3.04334
1288514668942,3.02674
1288514728942,3.00835
1288514788942,3.01844
1288514848942,3.03561
1288514908942,3.04108
1288514968942,3.03414
1288515028942,3.06150
1288515088942,3.01225
1288515148942,3.00801
1288515208942,3.03668
1288515268942,3.01445
1288515328942,3.05447
1288515388942,3.03670
1288515448942,3.00467
1288515508942,3.01930
1288515568942,3.00466
1288515628952,3.03840
1288515688952,3.04915
1288515748952,3.02074
1288515808952,3.04310
1288515868952,3.02727
1288515928952,3.02184
1288515988952,3.02069
1288516048952,3.02208
1288516108952,3.02906
1288516168952,3.01043
1288516228952,3.04616
1288516288952,3.04165
1288516348952,3.04933
1288516408952,3.04734
1288516468952,3.05021
1288516528952,3.05383
1288516588952,3.05032
1288516648952,3.01915
1288516708952,3.05705
1288516768952,3.03069
1288516828952,3.02097
1288516888952,3.04931
1288516948952,3.04280
1288517008952,3.03429
1288517068952,3.05416
1288517128952,3.04184
1288517188952,3.05569
1288517248952,3.02713
1288517308952,3.03406
1288517368952,3.04126
1288517428952,3.03519
1288517488952,3.06136
1288517548952,3.06135
1288517608952,3.05456
1288517668952,3.05741
1288517728952,3.03675
1288517788952,2.99856
1288517848952,3.02208
1288517908952,3.01399
1288517968952,3.01942
1288518028952,3.05019
1288518088952,3.04587
1288518148952,3.00636
1288518208952,3.04336
1288518268952,3.04992
1288518328952,3.05274
1288518388952,3.01300
1288518448952,3.02944
1288518508952,3.01853
1288518568952,3.03194
1288518628952,3.03950
1288518688952,3.01065
1288518748952,3.05150
1288518808952,3.03870
1288518868952,3.06392
1288518928952,3.05761
1288518988952,3.03593
1288519048952,3.03026
1288519108952,3.02434
1288519168952,3.04693
1288519228963,3.04742
1288519288964,3.02274
1288519348964,3.03726
1288519408964,3.05805
1288519468964,3.06746
1288519528964,3.06900
1288519588964,3.04064
1288519648963,3.03832
1288519708963,3.03830
1288519768963,3.05670
1288519828963,3.04262
1288519888963,3.01340
1288519948963,3.04974
1288520008963,3.02483
1288520068963,3.07836
1288520128963,3.04861
1288520188963,3.03488
1288520248963,3.06095
1288520308963,3.05144
1288520368963,3.05615
1288520428963,3.02409
1288520488963,3.06174
1288520548963,3.05957
1288520608964,3.03869
1288520668964,3.03168
1288520728964,3.05983
1288520788964,3.01784
1288520848964,3.02323
1288520908964,3.04972
1288520968963,3.05048
1288521028963,3.05851
1288521088963,3.04041
1288521148963,3.07186
1288521208963,3.08107
1288521268963,3.07176
1288521328963,3.07479
1288521388963,3.07763
1288521448963,3.06715
1288521508963,3.04072
1288521568963,3.05656
1288521628963,3.06069
1288521688963,3.06005
1288521748963,3.04103
1288521808963,3.03270
1288521868963,3.06483
1288521928963,3.05658
1288521988964,3.05023
1288522048964,3.07248
1288522108964,3.06615
1288522168964,3.08082
1288522228964,3.05600
1288522288964,3.04703
1288522348963,3.08707
1288522408963,3.06347
1288522468963,3.04219
1288522528963,3.03333
1288522588963,3.08002
1288522648963,3.09118
1288522708963,3.09116
1288522768963,3.06989
1288522828975,3.12376
1288522888975,3.06003
1288522948975,3.06410
1288523008975,3.08675
1288523068975,3.04072
1288523128975,3.07648
1288523188975,3.05605
1288523248975,3.08863
1288523308975,3.05016
1288523368975,3.05228
1288523428975,3.06158
1288523488975,3.03938
1288523548975,3.07927
1288523608975,3.06291
1288523668975,3.05151
1288523728975,3.07476
1288523788975,3.06616
1288523848975,3.07167
1288523908975,3.09847
1288523968975,3.05600
1288524028975,3.06497
1288524088975,3.05489
1288524148975,3.06904
1288524208975,3.07880
1288524268975,3.06899
1288524328975,3.06280
1288524388975,3.06057
1288524448975,3.03440
1288524508975,3.05453
1288524568975,3.07620
1288524628975,3.09444
1288524688975,3.10004
1288524748975,3.07571
1288524808975,3.03593
1288524868975,3.03671
1288524928975,3.07184
1288524988975,3.10058
1288525048975,3.06610
1288525108975,3.04200
1288525168975,3.05497
1288525228975,3.08609
1288525288975,3.09653
1288525348975,3.04926
1288525408975,3.06727
1288525468975,3.04056
1288525528975,3.06739
1288525588975,3.05071
1288525648975,3.05833
1288525708975,3.07314
1288525768975,3.04753
1288525828975,3.05035
1288525888975,3.03648
1288525948975,3.05928
1288526008975,3.05958
1288526068975,3.08322
1288526128975,3.05809
1288526188975,3.07826
1288526248975,3.04725
1288526308975,3.05299
1288526368975,3.04261
1288526428986,3.04407
1288526488986,3.07228
1288526548986,3.07800
1288526608986,3.07123
1288526668986,3.07032
1288526728986,3.08951
1288526788986,3.08352
1288526848986,3.04576
1288526908986,3.03313
1288526968986,3.06679
1288527028986,3.05369
1288527088986,3.05236
1288527148986,3.08088
1288527208986,3.08329
1288527268986,3.09329
1288527328986,3.08212
1288527388986,3.05233
1288527448986,3.08688
1288527508986,3.06265
1288527568986,3.07240
1288527628986,3.05832
1288527688986,3.06202
1288527748986,3.04250
1288527808986,3.05381
1288527868986,3.05755
1288527928986,3.07907
1288527988986,3.10765
1288528048986,3.07642
1288528108986,3.08560
1288528168986,3.08720
1288528228986,3.06128
1288528288986,3.07493
1288528348986,3.09928
1288528408986,3.09103
1288528468986,3.07227
1288528528986,3.09275
1288528588986,3.07549
1288528648986,3.11119
1288528708986,3.08643
1288528768986,3.09914
1288528828986,3.10096
1288528888986,3.08076
1288528948986,3.13141
1288529008986,3.07596
1288529068986,3.07078
1288529128986,3.06093
1288529188986,3.07774
1288529248986,3.06685
1288529308986,3.07666
1288529368986,3.10147
1288529428986,3.06655
1288529488986,3.05574
1288529548986,3.06220
1288529608986,3.10021
1288529668986,3.06659
1288529728986,3.07936
1288529788986,3.09683
1288529848986,3.07075
1288529908986,3.07776
1288529968986,3.09398
1288530028998,3.10727
1288530088998,3.10165
1288530148998,3.12103
1288530208998,3.08466
1288530268998,3.07635
1288530328998,3.08032
1288530388998,3.11980
1288530448998,3.09831
1288530508998,3.09114
1288530568998,3.10177
1288530628998,3.11725
1288530688998,3.10694
1288530748998,3.04156
1288530808998,3.07696
1288530868998,3.05858
1288530928998,3.10177
1288530988998,3.08293
1288531048998,3.11352
1288531108998,3.07696
1288531168998,3.09670
1288531228998,3.04387
1288531288998,3.07582
1288531348998,3.07178
1288531408998,3.15108
1288532608998,3.07142
1288532668998,3.11442
1288532728998,3.06455
1288532788998,3.06503
1288532848998,3.08329
1288532908998,3.08590
1288532968998,3.07826
1288533028998,3.06997
1288533088998,3.06706
1288533148998,3.06571
1288533208998,3.06875
1288533268998,3.09305
1288533328998,3.06923
1288533388998,3.09798
1288533448998,3.08445
1288533508998,3.09508
1288533568998,3.08611
1288533629010,3.07181
1288533689010,3.05283
1288533749010,3.06498
1288533809010,3.07911
1288533869010,3.06021
1288533929010,3.06867
1288533989010,3.05969
1288534049010,3.07758
1288534109010,3.06410
1288534169010,3.05372
1288534229010,3.06488
1288534289010,3.07014
1288534349010,3.05867
1288534409010,3.04449
1288534469010,3.07608
1288534529010,3.10821
1288534589010,3.06588
1288534649010,3.06721
1288534709010,3.04355
1288534769010,3.06480
1288534829010,3.09811
1288534889010,3.06471
1288534949010,3.06803
1288535009010,3.08196
1288535069010,3.09414
1288535129010,3.08920
1288535189010,3.06949
1288535249010,3.11351
1288535309010,3.08501
1288535369010,3.09820
1288535429010,3.06931
1288535489010,3.09812
1288535549010,3.09223
1288535609010,3.10038
1288535669010,3.06746
1288535729010,3.12115
1288535789010,3.06749
1288535849010,3.07682
1288535909010,3.07958
1288535969010,3.10347
1288536029010,3.08031
1288536089010,3.09241
1288536149010,3.07025
1288536209010,3.06125
1288536269010,3.07856
1288536329010,3.05605
1288536389010,3.07024
1288536449010,3.07591
1288536509010,3.09158
1288536569010,3.08015
1288536629010,3.08482
1288536689010,3.10652
1288536749010,3.08872
1288536809010,3.05460
1288536869010,3.06928
1288536929010,3.07337
1288536989010,3.08914
1288537049010,3.08914
1288537109010,3.06898
1288537169010,3.09914
1288537229022,3.08727
1288537289022,3.07894
1288537349022,3.07281
1288537409022,3.09222
1288537469022,3.07488
1288537529022,3.10845
1288537589022,3.07636
1288537649022,3.08016
1288537709022,3.08045
1288537769022,3.11830
1288537829022,3.05973
1288537889022,3.06433
1288537949022,3.06676
1288538009022,3.08553
1288538069022,3.04912
1288538129022,3.06729
1288538189022,3.08661
1288538249022,3.08212
1288538309022,3.10698
1288538369022,3.07410
1288538429022,3.08852
1288538489022,3.11483
1288538549022,3.06893
1288538609022,3.07896
1288538669022,3.09232
1288538729022,3.06792
1288538789022,3.07488
1288538849022,3.10662
1288538909022,3.08118
1288538969022,3.09044
1288539029022,3.06891
1288539089022,3.07536
1288539149022,3.08707
1288539209022,3.08787
1288539269022,3.09847
1288539329022,3.08904
1288539389022,3.09141
1288539449022,3.11172
1288539509022,3.10757
1288539569022,3.10265
1288539629022,3.11556
1288539689022,3.09963
1288539749022,3.09539
1288539809022,3.09441
1288539869022,3.11382
1288539929022,3.09891
1288539989022,3.08768
1288540049022,3.08122
1288540109022,3.08599
1288540169022,3.09693
1288540229022,3.09401
1288540289022,3.10317
1288540349022,3.07971
1288540409022,3.09455
1288540469022,3.09981
1288540529022,3.05471
1288540589022,3.07951
1288540649022,3.06615
1288540709022,3.06997
1288540769022,3.09562
1288540829035,3.06879
1288540889035,3.08312
1288540949035,3.07347
1288541009035,3.05472
1288541069035,3.09879
1288541129035,3.08591
1288541189035,3.10093
1288541249035,3.07834
1288541309035,3.04934
1288541369035,3.07336
1288541429035,3.07130
1288541489035,3.11530
1288541549035,3.06877
1288541609035,3.08279
1288541669035,3.08318
1288541729035,3.08670
1288541789035,3.07032
1288541849035,3.08294
1288541909035,3.11363
1288541969035,3.08179
1288542029035,3.06750
1288542089035,3.08612
1288542149035,3.09045
1288542209035,3.09138
1288542269035,3.08933
1288542329035,3.04414
1288542389035,3.09190
1288542449035,3.03812
1288542509035,3.07445
1288542569035,3.08598
1288542629035,3.07864
1288542689035,3.04529
1288542749035,3.09446
1288542809035,3.05005
1288542869035,3.07179
1288542929035,3.07920
1288542989035,3.08082
1288543049035,3.08253
1288543109035,3.09044
1288543169035,3.06403
1288543229035,3.06158
1288543289035,3.08803
1288543349035,3.08886
1288543409035,3.06787
1288543469035,3.07900
1288543529035,3.07461
1288543589035,3.06478
1288543649035,3.05600
1288543709035,3.07461
1288543769035,3.08932
1288543829035,3.06501
1288543889035,3.06973
1288543949035,3.07188
1288544009035,3.08853
1288544069035,3.04808
1288544129035,3.06459
1288544189035,3.09017
1288544249035,3.05668
1288544309035,3.08869
1288544369035,3.04715
1288544429047,3.08767
1288544489047,3.06374
1288544549047,3.08127
1288544609047,3.06749
1288544669047,3.06395
1288544729047,3.05038
1288544789047,3.07255
1288544849047,3.07154
1288544909047,3.07938
1288544969047,3.06119
1288545029047,3.08511
1288545089047,3.06318
1288545149047,3.06998
1288545209047,3.09959
1288545269047,3.06788
1288545329047,3.07835
1288545389047,3.07102
1288545449047,3.07726
1288545509047,3.07446
1288545569047,3.05779
1288545629047,3.07256
1288545689047,3.06374
1288545749047,3.04064
1288545809047,3.05121
1288545869047,3.05315
1288545929047,3.06534
1288545989047,3.06633
1288546049047,3.07020
1288546109047,3.03765
1288546169047,3.04580
1288546229047,3.06465
1288546289047,3.08171
1288546349047,3.07037
1288546409047,3.08551
1288546469047,3.08412
1288546529047,3.08371
1288546589047,3.07307
1288546649047,3.07353
1288546709047,3.06151
1288546769047,3.04227
1288546829047,3.05908
1288546889047,3.04574
1288546949047,3.05951
1288547009047,3.06552
1288547069047,3.07120
1288547129047,3.07793
1288547189047,3.06357
1288547249047,3.03604
1288547309047,3.03900
1288547369047,3.07540
1288547429047,3.02230
1288547489047,3.04786
1288547549047,3.07021
1288547609047,3.06472
1288547669047,3.01896
1288547729047,3.06589
1288547789047,3.05641
1288547849047,3.06156
1288547909047,3.05433
1288547969047,3.06937
1288548029059,3.03240
1288548089059,3.04458
1288548149059,3.04569
1288548209059,3.05392
1288548269059,3.04513
1288548329059,3.04022
1288548389059,3.10309
1288548449059,3.07338
1288548509059,3.04568
1288548569059,3.06533
1288548629059,3.05705
1288548689059,3.04090
1288548749059,3.06305
1288548809059,3.07010
1288548869059,3.07858
1288548929059,3.07840
1288548989059,3.06231
1288549049059,3.06105
1288549109059,3.03349
1288549169059,3.05136
1288549229059,3.05637
1288549289059,3.03724
1288549349059,3.02981
1288549409059,3.06413
1288549469059,3.06412
1288549529059,3.07085
1288549589059,3.04949
1288549649059,3.07889
1288549709059,3.05825